Location: ??? ?????
(30.6482°N, 60.5850°E)
Time: 05:35:24
(UTC+00:00)

STARLINK-1101 - Pass Details

Date: 09 April 2020
Orbit: 548 x 551 km, 53.0° (Epoch: 05 June)

Event Time Altitude Azimuth Distance (km) Brightness Sun altitude
Rises 14:44:30 0° 314° (NW) 2,664 8.3 -5.6°
Reaches altitude 10° 14:46:44 10° 311° (NW) 1,772 7.4 -6.1°
Maximum altitude 14:50:42 63° 230° (SW) 594 4.0 -6.9°
Drops below altitude 10° 14:54:40 10° 149° (SSE) 1,769 5.8 -7.7°
Enters shadow 14:56:14 - 147° (SSE) 2,396 6.4 -8.1°
